Location: Passau
(48.5830°N, 13.4830°E)
Time: 20:22:40
(UTC+02:00)

S-56A Canister/Altair - Pass Details

Date: 20 May 2024
Orbit: 637 x 2489 km, 38.9° (Epoch: 15 June)

Event Time Altitude Azimuth Distance (km) Brightness Sun altitude
Rises 10:22:19 0° 255° (WSW) 5,110 11.4 47.2°
Reaches altitude 10° 10:26:21 10° 249° (WSW) 3,808 10.9 47.7°
Maximum altitude 10:34:49 40° 184° (S) 1,661 10.1 49.0°
Drops below altitude 10° 10:40:39 10° 116° (ESE) 2,620 11.2 49.8°
Sets 10:42:56 0° 109° (ESE) 3,387 11.5 50.1°
